Regional Weather Roundup
Issued by NWS Cleveland, OH

Home | Current Version | Previous Version | Text Only | Print | Product List | Glossary Off
Versions: 1 2 3 4 5 6 7 8 9 10 11 12 13 14 15 16 17 18 19 20 21 22 23 24 25 26 27 28 29 30 31 32 33 34 35 36 37 38 39 40 41 42 43 44 45 46 47 48 49 50

000
ASUS41 KCLE 270910
RWRCLE
OHIO REGIONAL WEATHER ROUNDUP
NATIONAL WEATHER SERVICE CLEVELAND, OH
500 AM EDT SAT AUG 27 2016

NOTE: "FAIR" INDICATES FEW OR NO CLOUDS BELOW 12,000 FEET WITH NO
SIGNIFICANT WEATHER AND/OR OBSTRUCTIONS TO VISIBILITY.

OHZ001>008-015>018-024>027-034-035-043-044-271000-
   NORTHWEST OHIO

CITY           SKY/WX    TMP DP  RH WIND       PRES   REMARKS
DEFIANCE       CLOUDY    72  63  73 CALM      30.12F
FINDLAY        PTCLDY    71  59  65 E8        30.12F
TOLEDO EXPRESS CLOUDY    68  65  90 CALM      30.13S
TOLEDO EXEC    CLOUDY    70  64  81 CALM      30.14F
LIMA           PTCLDY    68  64  87 E6        30.13F
$$

OHZ009>014-019>023-028>033-038-089-271000-
   NORTHEAST OHIO

CITY           SKY/WX    TMP DP  RH WIND       PRES   REMARKS
CLE-HOPKINS    PTCLDY    68  58  70 CALM      30.18S
CLE-LAKEFRONT  CLEAR     70  60  70 CALM      30.16R
CUY CO. ARPT   NOT AVBL
LORAIN-ELYRIA  PTCLDY    63  58  83 CALM      30.16F
ASHTABULA      MOCLDY    60  60 100 CALM      30.20R
AKRON-CANTON   CLOUDY    69  58  67 E6        30.18R
WOOSTER        CLOUDY    63  60  90 CALM      30.18S
MANSFIELD      PTCLDY    69  60  73 SE5       30.17S
YOUNGSTOWN     CLOUDY    62  60  93 E5        30.19S
$$

OHZ042-051>053-060>062-070>072-077>081-271000-
  SOUTHWEST OHIO

CITY           SKY/WX    TMP DP  RH WIND       PRES   REMARKS
CINC-COVINGTON CLOUDY    74  72  93 CALM      30.10S
CINC-LUNKEN    NOT AVBL
HAMILTON       MOCLDY    69  67  93 CALM      30.11S
DAYTON         MOCLDY    71  68  90 E5        30.12F
WRIGHT-PAT AFB MOCLDY    72  70  93 N1        30.11S
DAYTON GENERAL MOCLDY    74  69  85 E7        30.10F
WILMINGTON     PTCLDY    72  70  93 E5        30.12S
$$

OHZ036-037-039>041-045>050-054>059-063>069-073>076-082>088-271000-
  CENTRAL AND SOUTHEAST OHIO

CITY           SKY/WX    TMP DP  RH WIND       PRES   REMARKS
COLUMBUS       CLOUDY    72  62  71 E7        30.12S
OSU AIRPORT    PTCLDY    71  65  81 E3        30.13F
BOLTON FIELD   CLOUDY    71  66  84 NE3       30.13F
RICKENBACK AFB CLOUDY    71  67  88 NE8       30.11F
NEWARK         CLOUDY    69  65  86 CALM      30.14S
MARION         PTCLDY    67  60  78 CALM      30.15S
LANCASTER      PTCLDY    69  67  93 CALM      30.13F
ZANESVILLE     CLOUDY    69  66  90 CALM      30.15R
NEW PHILLY     PTCLDY    67  62  84 CALM      30.17S
$$




USA.gov is the U.S. government's official web portal to all federal, state and local government web resources and services.